Temp
61 61 61 61 60 60 61 61 60 59 59 59 59 59 60 59 58 62 67 73 74 68 70 76 77 77 75 72 75 72 57 57 62 62 62 68 68 72 75 74 74 74 73 73 75
61 62 62 61 60 60 61 60 59 59 59 59 59 59 59 58 61 69 77 71 69 68 74 74 73 75 69 70 71 66 57 60 67 68 65 66 68 70 70 69 68 70 75 76 75
61 61 61 61 61 60 61 60 59 59 59 59 59 59 58 58 63 74 71 70 68 69 76 78 79 76 69 68 70 64 60 66 69 70 71 66 69 71 67 62 69 66 70 72 72
61 60 60 61 60 60 60 60 59 59 59 59 59 59 59 59 60 75 71 69 68 73 76 77 75 69 65 63 69 64 70 72 70 72 70 69 71 69 65 68 75 74 74 72 71
59 59 59 60 60 59 60 59 59 59 58 58 58 59 59 62 69 86 71 70 74 78 77 75 73 71 67 69 70 67 68 72 72 72 70 74 69 70 68 74 76 76 76 73 73
58 58 58 58 59 59 59 59 58 57 57 58 58 59 58 62 86 90 87 77 81 78 79 78 77 78 72 70 66 70 71 69 69 69 70 68 68 66 67 75 74 75 72 73 74
58 58 57 58 58 58 59 58 57 57 57 58 59 62 65 69 84 83 88 81 83 83 80 82 80 75 73 69 73 72 65 67 67 69 66 68 60 65 70 74 73 72 73 73 75
58 58 57 57 57 57 58 57 57 56 57 58 59 61 64 86 82 88 85 84 87 87 84 82 82 76 71 72 71 65 62 55 65 69 69 66 54 66 72 71 68 71 72 73 73
58 58 57 57 57 57 57 56 56 57 58 59 58 60 66 81 80 84 83 82 83 84 80 88 78 69 71 60 55 57 50 56 61 70 67 62 58 66 70 71 68 66 68 70 71
58 58 58 57 57 56 56 57 57 57 59 67 71 63 73 75 81 83 81 83 78 77 75 71 67 61 60 56 48 52 55 54 56 59 63 58 57 63 66 69 67 64 66 65 67
59 59 58 57 57 56 53 54 60 60 63 65 68 70 77 81 82 79 84 79 77 71 61 68 58 53 57 61 64 62 59 56 56 65 61 59 59 61 64 64 62 63 64 64 65
59 59 58 58 57 57 53 60 68 69 60 74 76 76 81 81 74 77 82 70 68 61 66 61 54 64 68 66 63 63 59 55 60 66 60 55 57 59 65 63 65 64 63 63 63
59 59 59 57 57 54 59 67 76 72 60 70 76 76 76 79 72 72 75 72 67 63 62 56 61 70 68 62 61 59 55 55 55 61 58 56 52 57 64 66 68 66 66 65 63
59 58 57 56 57 63 63 75 74 68 51 62 69 73 78 77 68 78 79 71 68 62 63 61 68 66 63 61 61 54 62 60 59 53 45 55 41 51 59 60 63 63 60 61 62
58 58 56 58 58 64 71 75 72 66 32 65 69 81 77 70 70 70 77 72 63 65 63 57 61 60 59 60 63 57 61 58 57 51 48 52 45 49 58 56 58 59 61 60 60
59 58 56 59 56 67 71 70 66 46 35 61 70 67 66 69 70 72 70 73 72 66 64 61 67 63 60 65 64 65 59 58 56 51 36 50 48 48 52 58 58 60 61 62 60
58 56 58 69 62 69 67 63 44 36 65 59 62 67 65 63 66 67 64 60 55 50 50 60 60 62 66 58 62 59 51 35 34 32 33 52 50 47 56 61 61 59 57 58 59
58 56 62 70 68 67 63 54 39 59 59 68 65 65 60 63 63 64 61 54 60 58 53 48 44 58 65 59 53 55 52 33 31 29 34 52 44 47 59 62 63 63 60 61 60
58 61 63 64 68 65 57 41 47 58 66 63 64 58 58 63 60 60 56 55 57 58 51 49 49 61 63 63 60 55 45 54 41 35 30 43 50 57 60 62 63 61 61 58 60
59 60 62 67 67 61 51 46 58 67 68 66 56 60 53 58 57 56 56 60 58 61 60 56 47 59 62 62 62 57 59 42 38 30 30 40 43 42 52 55 58 60 59 60 60
58 56 63 68 64 56 44 51 63 70 67 62 59 58 60 57 59 57 56 59 62 61 60 55 51 50 58 53 51 52 49 50 49 38 29 26 36 52 52 55 55 57 58 56 55
57 50 63 64 52 51 49 61 58 64 67 65 63 63 59 59 56 56 53 56 62 60 54 54 49 36 50 57 60 56 52 51 32 36 32 30 35 55 53 57 56 56 56 55 56
55 56 64 62 42 41 58 63 65 63 63 62 61 63 63 56 50 54 54 59 60 56 50 53 46 33 42 50 56 52 56 55 46 36 34 25 32 58 60 55 58 55 54 56 55
56 47 54 55 57 55 58 57 58 65 63 65 63 63 59 56 59 52 52 57 58 56 51 53 51 42 34 44 49 45 51 53 46 30 33 34 42 51 51 52 53 52 52 52 53
57 53 55 44 50 54 58 59 57 56 62 63 59 60 57 47 52 50 53 54 56 53 54 52 42 46 48 51 52 49 49 49 47 45 35 40 45 48 48 48 50 52 53 53 51
56 56 57 54 58 55 52 57 57 60 60 58 56 60 59 51 52 49 54 53 51 54 52 52 36 38 37 49 48 43 47 48 49 49 47 47 45 52 51 52 50 51 51 49 49
60 62 57 50 53 49 51 57 59 59 59 63 59 53 47 54 55 55 55 55 55 52 48 45 36 32 31 40 37 30 41 48 49 51 48 38 45 49 47 48 46 45 47 48 47
MSLP
1017.28 1017.22 1017.15 1017.13 1017.05 1016.96 1016.75 1016.82 1016.73 1016.70 1016.86 1016.57 1016.48 1016.33 1016.08 1015.61 1014.64 1014.47 1013.37 1011.25 1010.92 1010.87 1011.17 1010.97 1011.02 1011.00 1010.91 1011.00 1010.84 1011.23 1011.66 1011.30 1010.72 1010.06 1010.29 1009.59 1009.81 1010.27 1010.66 1011.32 1011.83 1012.09 1013.50 1014.72 1015.26
1016.97 1016.87 1016.77 1016.76 1016.72 1016.45 1016.32 1016.42 1016.42 1016.48 1016.51 1016.46 1016.32 1016.27 1015.97 1015.54 1014.72 1012.90 1010.56 1010.41 1010.61 1010.71 1010.89 1010.69 1010.56 1010.44 1010.99 1010.30 1010.44 1010.72 1010.91 1010.13 1009.11 1009.49 1010.10 1010.14 1010.19 1010.45 1011.44 1012.05 1013.01 1013.74 1014.25 1014.84 1015.31
1016.60 1016.46 1016.40 1016.31 1016.33 1016.22 1016.06 1016.20 1016.27 1016.26 1016.28 1016.31 1016.27 1016.14 1015.87 1015.56 1014.39 1010.83 1009.44 1009.99 1010.31 1010.43 1010.33 1010.05 1009.93 1010.05 1010.08 1009.73 1009.27 1009.25 1009.83 1009.82 1009.59 1009.35 1009.66 1010.28 1010.53 1010.63 1011.36 1012.37 1012.85 1014.03 1014.75 1015.28 1015.60
1016.11 1016.13 1016.12 1015.98 1015.95 1015.88 1015.81 1015.91 1016.12 1016.04 1016.12 1016.22 1016.16 1016.06 1015.80 1015.33 1012.85 1009.57 1009.32 1009.65 1009.80 1009.98 1010.23 1009.70 1009.47 1009.46 1009.16 1009.31 1008.56 1009.08 1009.24 1009.29 1009.63 1009.53 1009.60 1010.20 1010.54 1011.01 1011.20 1011.68 1012.22 1013.24 1013.98 1014.83 1015.68
1015.74 1015.79 1015.73 1015.62 1015.54 1015.56 1015.70 1015.71 1015.93 1015.92 1016.08 1016.11 1016.07 1015.90 1015.48 1014.28 1011.11 1008.68 1008.95 1009.31 1009.58 1009.82 1009.57 1009.41 1009.43 1009.18 1009.17 1008.52 1008.56 1008.99 1009.52 1009.60 1009.64 1009.82 1009.94 1010.13 1010.68 1011.04 1011.38 1011.59 1012.31 1013.15 1013.86 1014.47 1014.95
1015.25 1015.32 1015.27 1015.16 1015.16 1015.30 1015.46 1015.56 1015.75 1015.81 1015.88 1015.92 1015.93 1015.74 1015.10 1012.45 1008.58 1008.15 1008.24 1009.18 1009.07 1009.40 1008.86 1008.83 1008.45 1008.05 1007.89 1008.10 1008.58 1008.98 1009.53 1010.03 1010.06 1010.11 1010.15 1010.50 1010.79 1010.98 1011.75 1011.58 1012.55 1013.07 1013.65 1013.97 1014.34
1014.71 1014.81 1014.71 1014.72 1014.92 1015.06 1015.17 1015.35 1015.51 1015.56 1015.59 1015.72 1015.59 1015.32 1013.71 1010.55 1008.55 1008.08 1007.96 1007.97 1007.91 1007.91 1008.02 1007.43 1007.44 1007.71 1008.01 1008.46 1008.75 1009.04 1009.98 1010.30 1010.54 1010.55 1010.65 1010.88 1011.35 1011.21 1011.58 1011.62 1012.42 1012.84 1013.22 1013.46 1013.79
1014.31 1014.34 1014.34 1014.42 1014.63 1014.78 1014.97 1015.11 1015.25 1015.41 1015.48 1015.37 1015.35 1014.76 1012.26 1008.85 1008.28 1008.06 1007.89 1007.81 1007.59 1007.52 1007.68 1007.54 1007.47 1007.87 1008.33 1008.45 1009.00 1009.65 1010.25 1010.79 1010.67 1010.55 1010.74 1011.05 1011.44 1011.44 1011.28 1011.76 1012.46 1012.49 1012.84 1013.12 1013.59
1013.99 1013.91 1014.00 1014.13 1014.36 1014.51 1014.69 1014.96 1015.04 1015.06 1015.06 1015.21 1015.08 1014.05 1011.21 1008.62 1008.47 1008.23 1008.07 1008.18 1007.80 1007.93 1008.03 1007.95 1008.10 1008.59 1008.70 1009.38 1010.01 1010.18 1010.57 1010.94 1010.78 1010.45 1010.80 1011.05 1011.14 1011.14 1011.15 1011.54 1012.34 1012.65 1012.93 1013.28 1013.45
1013.53 1013.60 1013.73 1013.92 1014.12 1014.35 1014.70 1014.83 1014.71 1014.65 1014.59 1014.49 1013.78 1013.24 1010.29 1008.80 1008.39 1008.32 1008.29 1008.24 1008.37 1008.28 1008.60 1008.72 1009.10 1009.36 1009.78 1010.26 1010.66 1010.57 1010.36 1010.29 1010.60 1010.71 1010.62 1011.12 1011.53 1011.54 1011.44 1011.74 1012.13 1012.44 1013.20 1014.21 1015.01
1013.36 1013.32 1013.54 1013.77 1014.11 1014.51 1014.81 1014.85 1014.79 1014.38 1013.62 1012.25 1011.33 1010.37 1008.97 1008.54 1008.42 1008.59 1008.38 1008.45 1008.46 1008.67 1009.24 1009.18 1010.11 1010.24 1010.20 1010.08 1010.04 1010.21 1010.52 1010.89 1011.02 1010.90 1011.20 1011.50 1011.61 1012.02 1011.95 1011.90 1012.34 1013.32 1014.61 1015.48 1016.04
1013.20 1013.22 1013.41 1013.75 1014.11 1014.42 1014.84 1013.82 1011.85 1011.60 1011.79 1010.74 1010.02 1009.56 1008.64 1008.44 1008.46 1008.44 1008.34 1008.82 1008.84 1009.31 1009.50 1010.05 1010.51 1010.29 1010.14 1010.18 1010.30 1010.40 1010.84 1011.68 1011.72 1011.62 1011.74 1012.02 1012.42 1012.49 1012.43 1012.73 1013.09 1014.44 1015.35 1016.02 1016.68
1013.00 1013.09 1013.34 1013.61 1014.05 1014.57 1013.79 1012.19 1010.62 1010.62 1010.59 1009.80 1009.10 1008.71 1008.48 1008.47 1008.36 1008.47 1008.61 1008.89 1009.13 1009.53 1009.77 1010.25 1010.70 1010.32 1010.25 1010.57 1010.93 1011.52 1011.82 1012.16 1012.46 1012.29 1012.22 1012.62 1013.33 1013.31 1013.20 1013.44 1014.02 1015.22 1016.02 1016.59 1017.26
1012.97 1013.03 1013.26 1013.65 1014.28 1012.90 1012.55 1010.66 1010.39 1010.45 1010.66 1009.92 1009.00 1008.53 1008.40 1008.27 1008.75 1008.76 1008.78 1009.27 1008.87 1009.46 1009.96 1010.79 1010.78 1010.68 1010.71 1011.20 1011.63 1012.05 1012.46 1012.80 1013.13 1013.53 1013.58 1013.20 1014.40 1014.06 1013.97 1014.52 1015.01 1015.98 1016.73 1017.40 1017.98
1012.90 1012.99 1013.17 1012.95 1013.39 1012.30 1011.13 1010.34 1010.23 1010.60 1010.63 1009.57 1008.72 1008.32 1008.39 1008.81 1009.10 1009.17 1008.94 1009.02 1009.38 1009.59 1010.04 1011.31 1011.27 1011.34 1011.51 1011.99 1012.15 1012.75 1012.90 1013.29 1013.76 1014.33 1014.59 1013.98 1014.48 1014.76 1014.58 1015.36 1015.94 1016.57 1017.24 1017.95 1018.41
1012.78 1012.84 1013.12 1013.44 1013.21 1011.54 1010.78 1010.72 1010.72 1011.37 1010.34 1009.28 1008.81 1008.73 1009.05 1008.99 1009.08 1009.36 1009.36 1009.38 1009.36 1010.15 1011.00 1011.58 1011.63 1012.08 1012.26 1012.20 1012.31 1012.70 1013.23 1013.66 1014.39 1015.22 1015.95 1015.69 1015.19 1015.69 1015.27 1015.48 1016.22 1016.85 1017.50 1018.24 1018.74
1012.30 1012.39 1012.64 1012.05 1012.08 1011.15 1011.13 1011.25 1011.87 1010.90 1009.66 1009.55 1009.15 1009.02 1009.32 1009.52 1009.70 1009.85 1010.09 1010.49 1011.09 1011.55 1012.16 1012.32 1012.53 1012.58 1012.50 1012.49 1012.59 1013.14 1013.89 1015.08 1016.35 1017.10 1017.52 1016.19 1016.03 1016.68 1015.85 1015.52 1015.95 1017.10 1018.13 1018.83 1019.22
1012.28 1012.56 1012.02 1011.59 1011.42 1011.29 1011.60 1012.01 1011.65 1009.85 1009.32 1009.01 1009.17 1009.33 1009.84 1009.94 1010.24 1010.42 1010.90 1011.73 1012.07 1012.33 1012.71 1012.89 1013.57 1013.20 1013.14 1013.22 1013.53 1013.78 1014.71 1016.36 1017.93 1019.18 1018.73 1017.30 1017.39 1017.66 1016.64 1016.85 1017.27 1017.66 1018.26 1018.79 1019.31
1012.42 1012.37 1012.06 1011.64 1011.37 1011.58 1012.36 1012.52 1010.96 1009.87 1009.05 1009.26 1009.46 1009.78 1010.24 1010.52 1010.91 1011.34 1012.13 1012.82 1013.32 1013.20 1013.52 1013.55 1014.24 1014.05 1013.82 1013.68 1013.85 1014.37 1015.37 1016.35 1018.21 1019.63 1020.13 1018.90 1018.59 1017.59 1017.26 1017.33 1017.79 1018.28 1018.69 1019.28 1019.55
1012.44 1012.43 1011.97 1011.38 1011.37 1012.03 1012.75 1012.06 1010.53 1009.71 1009.17 1009.08 1009.64 1009.80 1010.35 1010.87 1011.35 1011.76 1012.70 1013.43 1013.80 1013.79 1013.46 1014.20 1014.63 1014.58 1014.32 1014.18 1014.20 1014.62 1015.54 1016.92 1018.71 1020.75 1021.20 1020.00 1019.21 1018.34 1018.04 1018.04 1018.25 1018.61 1019.10 1019.65 1020.13
1012.57 1012.60 1011.82 1011.32 1011.69 1012.62 1013.04 1011.78 1010.47 1009.81 1009.71 1009.65 1009.71 1009.70 1009.99 1010.79 1011.39 1012.15 1013.41 1014.20 1014.26 1014.32 1014.31 1014.84 1015.13 1015.54 1015.02 1015.19 1015.17 1015.36 1016.08 1017.50 1019.10 1021.02 1022.02 1021.67 1020.32 1018.63 1018.65 1018.63 1019.15 1019.68 1019.71 1020.30 1020.86
1012.43 1012.80 1011.77 1011.79 1012.67 1012.69 1012.50 1011.05 1010.47 1010.32 1010.04 1009.81 1009.77 1009.79 1010.49 1011.02 1011.92 1012.75 1014.30 1014.78 1015.00 1015.15 1015.53 1015.86 1016.26 1016.53 1016.42 1015.92 1015.57 1015.78 1016.68 1018.00 1020.37 1022.05 1022.67 1022.43 1020.80 1019.09 1019.03 1019.15 1019.43 1020.02 1020.41 1020.75 1021.05
1012.36 1012.33 1011.96 1012.19 1012.78 1012.89 1011.85 1011.11 1010.54 1010.54 1010.33 1010.22 1010.37 1010.64 1010.98 1011.84 1012.89 1013.75 1015.05 1015.72 1015.70 1016.01 1016.53 1016.72 1017.08 1017.59 1017.57 1017.17 1016.45 1016.43 1017.13 1018.12 1019.95 1021.46 1022.61 1022.87 1021.15 1019.03 1018.83 1019.20 1019.64 1020.19 1020.61 1021.04 1021.43
1012.29 1012.44 1012.66 1012.64 1012.18 1012.27 1011.75 1011.42 1011.06 1010.73 1010.67 1010.58 1010.94 1011.26 1011.87 1012.65 1013.21 1014.58 1015.66 1016.28 1016.45 1016.75 1017.03 1017.20 1017.56 1018.34 1018.50 1018.06 1017.56 1017.53 1017.77 1018.30 1019.52 1021.27 1021.78 1021.49 1020.47 1019.48 1019.97 1020.27 1020.85 1021.21 1021.46 1021.82 1022.16
1011.92 1011.83 1011.70 1012.53 1012.41 1012.26 1011.60 1011.34 1011.43 1011.39 1011.18 1011.27 1011.68 1012.03 1012.68 1013.57 1014.31 1015.34 1016.20 1016.83 1017.16 1017.46 1017.58 1018.00 1018.99 1019.35 1019.35 1018.97 1018.57 1018.38 1018.43 1018.72 1019.23 1019.73 1020.44 1020.40 1020.31 1020.76 1020.83 1021.27 1021.64 1021.83 1021.99 1022.41 1022.92
1011.69 1011.43 1011.23 1011.73 1011.96 1011.85 1011.51 1011.29 1011.37 1011.48 1011.66 1011.96 1012.27 1012.61 1013.29 1014.56 1015.24 1015.76 1016.15 1016.80 1017.26 1017.77 1018.16 1018.86 1020.30 1020.88 1021.03 1020.45 1020.01 1019.53 1018.98 1018.68 1018.72 1018.99 1019.41 1019.86 1020.47 1020.66 1021.01 1021.46 1022.07 1022.31 1022.63 1023.13 1023.51
1011.19 1010.64 1011.19 1012.17 1012.25 1012.13 1011.67 1011.21 1011.29 1011.51 1012.18 1012.33 1012.74 1013.95 1014.78 1015.85 1016.07 1016.56 1016.54 1016.97 1017.36 1018.11 1019.04 1020.16 1021.71 1022.75 1022.98 1022.26 1021.41 1020.55 1019.18 1018.61 1018.49 1018.72 1019.10 1019.81 1020.43 1021.00 1021.58 1022.05 1022.60 1023.09 1023.22 1023.44 1023.51
Wind_Speed
12 12 12 11 10 10 10 13 11 10 12 13 13 13 13 15 18 4 6 9 7 8 5 4 6 8 5 5 7 4 1 9 17 8 5 3 6 5 6 9 9 5 15 13 10
14 14 14 12 10 10 12 13 13 11 11 12 12 11 11 13 5 7 10 6 8 8 3 6 7 9 4 6 5 6 4 4 1 10 8 3 8 5 8 8 11 12 16 12 10
15 14 14 11 11 9 10 12 13 11 10 11 10 9 11 10 4 8 11 9 11 11 6 5 10 5 7 3 6 1 5 4 7 6 11 8 6 3 9 6 16 18 13 9 10
15 15 15 12 10 9 10 12 12 11 10 11 9 10 11 3 3 4 11 13 11 8 4 5 6 5 2 5 4 5 8 9 5 8 7 10 7 3 5 10 13 20 19 12 9
13 14 13 12 10 9 11 11 12 11 10 9 8 9 4 2 9 8 11 8 5 5 7 6 9 6 8 6 3 9 6 7 6 8 6 10 5 5 7 9 13 18 16 15 12
11 11 11 10 9 8 11 11 11 9 9 8 7 9 3 5 7 8 6 9 9 6 7 9 7 8 1 6 5 7 9 7 4 4 4 3 3 2 5 9 10 17 15 14 15
9 10 9 8 8 9 10 10 9 9 8 8 7 5 4 12 5 5 5 2 2 2 5 5 5 8 5 6 1 8 6 6 5 7 4 1 2 7 8 10 11 11 14 13 15
9 9 8 7 8 8 10 11 10 9 8 9 7 3 6 7 4 8 6 4 4 5 6 9 9 7 3 3 4 3 4 5 6 9 6 9 7 7 11 11 10 11 9 10 11
9 7 8 8 8 8 8 9 9 10 7 6 3 2 7 1 2 2 3 6 1 3 3 5 4 2 4 3 2 2 5 6 6 11 6 5 7 10 9 9 8 7 9 8 8
7 7 8 7 8 6 5 6 3 7 5 6 7 3 7 4 3 3 3 4 2 2 1 1 1 1 5 5 3 4 5 6 7 4 3 2 3 1 4 6 6 5 7 8 18
7 6 7 7 5 4 2 1 2 2 4 9 8 5 6 4 4 5 5 3 4 3 4 6 6 4 3 3 4 5 4 9 4 6 3 3 4 4 5 3 3 10 20 16 18
5 7 7 6 6 5 1 3 3 4 4 16 12 8 2 4 5 5 5 1 2 6 6 4 4 4 1 2 3 5 7 6 4 4 3 3 5 4 7 4 13 17 15 14 14
4 6 7 8 9 5 4 7 7 8 4 3 2 4 1 3 2 4 2 5 7 6 5 7 3 2 4 8 9 9 6 5 3 7 3 3 2 6 6 12 18 14 14 13 15
5 7 9 11 2 4 4 8 1 2 4 3 3 2 3 4 4 4 4 3 3 3 11 7 3 4 5 8 7 5 6 5 6 5 3 4 1 2 8 12 15 14 11 11 13
6 9 13 7 4 1 3 5 3 6 5 7 4 4 3 1 8 2 2 5 5 4 8 2 5 8 9 4 4 2 2 3 3 4 3 7 3 3 8 11 12 11 13 11 10
8 9 11 1 1 5 6 7 5 7 2 3 5 5 5 3 2 5 2 2 3 8 9 5 5 5 4 4 2 5 4 6 4 2 3 8 4 2 5 11 7 9 9 10 10
5 11 7 3 2 5 5 4 6 5 6 5 5 7 7 2 5 6 5 3 3 4 2 3 4 3 2 4 1 3 6 4 6 6 4 4 7 2 6 10 16 13 10 9 9
6 7 7 1 4 5 4 6 1 5 4 6 6 4 7 3 4 3 6 4 8 6 2 6 3 5 6 5 2 4 4 6 1 1 5 3 3 2 10 14 14 12 10 8 8
3 2 2 2 2 3 6 3 5 4 6 6 4 5 4 3 2 5 8 3 5 7 5 4 3 4 6 3 4 5 6 1 6 2 4 1 3 5 8 8 9 7 6 8 7
1 2 2 4 3 5 5 5 1 5 5 5 5 5 7 8 4 4 4 4 3 5 2 5 5 2 3 1 3 6 2 6 5 2 3 3 4 3 5 4 3 3 6 7 8
2 2 3 3 4 5 3 6 3 6 9 5 3 3 2 7 6 5 4 5 7 2 7 4 5 3 2 5 4 5 3 4 3 5 5 1 4 3 5 4 3 6 7 9 9
1 1 3 3 4 3 3 3 1 3 3 3 3 5 3 5 6 6 5 5 8 6 3 3 5 3 4 2 2 0 3 5 6 4 1 5 7 3 9 11 8 8 9 6 7
3 3 2 4 3 3 6 3 1 5 4 1 5 6 5 4 6 10 5 5 7 5 2 3 2 3 5 5 5 1 4 5 6 4 5 6 7 2 5 9 4 8 8 6 7
1 3 3 1 2 5 4 3 3 5 3 4 5 3 4 4 4 5 4 2 4 3 3 3 2 6 7 3 1 2 5 4 6 4 4 7 7 10 5 4 8 7 7 6 7
1 4 8 4 5 4 5 8 6 2 2 2 1 3 5 3 4 5 5 4 2 1 2 3 3 4 5 5 4 3 5 7 5 6 4 8 4 8 7 8 6 6 6 10 9
1 3 2 4 5 3 5 6 9 8 6 4 3 6 7 4 2 6 9 5 4 5 4 4 1 2 1 6 7 4 7 8 8 2 4 5 5 7 6 7 8 5 7 8 7
3 3 5 5 3 4 4 0 1 8 3 4 4 12 14 6 9 6 8 5 6 5 3 3 4 3 3 4 5 5 5 5 4 3 3 2 1 7 10 9 7 7 7 5 5
Wind_Direction
287 282 278 274 265 264 278 282 282 291 296 304 308 320 327 325 307 160 238 227 190 167 190 269 213 236 235 256 205 154 208 252 266 130 159 94 96 64 69 66 50 43 124 144 135
288 283 278 273 262 268 278 280 283 289 296 300 309 321 327 329 293 252 244 205 190 171 208 218 249 222 227 231 231 145 154 327 113 122 136 84 100 103 95 90 78 80 104 123 121
284 282 277 272 265 263 272 273 277 285 292 297 309 326 320 321 290 237 166 196 199 177 243 234 253 229 215 218 229 273 131 60 23 111 123 112 100 117 140 134 139 138 137 131 137
283 277 273 268 264 258 263 266 273 280 287 293 313 325 314 273 295 197 185 200 174 179 245 268 261 200 239 239 256 83 64 98 24 32 93 122 143 113 163 174 153 144 146 141 153
280 271 266 264 258 252 260 262 268 274 281 293 312 317 296 225 248 221 186 159 144 185 225 228 260 206 244 247 84 97 93 73 76 59 57 99 108 127 98 97 135 142 145 154 165
267 257 251 248 248 244 254 258 263 264 270 284 297 309 228 253 243 177 219 148 227 216 249 225 231 208 305 67 112 130 108 121 136 62 54 81 147 98 194 122 137 143 157 168 174
265 253 246 242 240 238 249 255 254 257 272 279 292 273 266 245 343 303 302 307 306 311 356 355 1 41 352 70 63 124 118 145 148 161 169 185 286 189 183 144 147 152 170 176 187
266 250 243 234 232 232 243 250 258 262 272 279 273 265 258 270 331 329 313 313 291 347 10 355 1 357 30 99 25 190 116 132 232 172 201 117 253 249 169 146 168 176 185 176 194
258 246 235 226 225 225 225 244 259 266 260 272 229 196 263 234 274 237 351 318 159 332 12 313 4 285 21 132 351 283 237 166 200 180 147 150 273 172 172 158 183 193 197 183 186
260 234 227 217 218 220 241 254 323 295 217 226 256 316 277 247 141 45 305 301 296 180 267 253 329 350 21 70 223 253 266 172 139 196 94 273 243 24 135 142 182 214 180 79 76
246 225 214 204 199 193 169 241 33 353 238 194 187 226 153 106 111 229 203 237 298 171 227 244 76 138 122 32 342 1 24 107 89 69 69 275 304 136 64 128 172 64 92 90 80
237 202 191 173 172 160 306 236 228 196 248 248 255 202 350 215 174 114 145 194 217 250 271 4 89 360 201 118 4 351 25 49 97 105 98 328 333 154 81 63 87 108 100 100 94
241 195 164 143 137 133 223 252 326 27 175 254 183 149 286 341 139 148 75 311 238 249 265 110 143 301 10 49 31 28 81 25 14 339 317 272 22 106 58 79 85 94 108 105 106
218 193 156 139 115 197 219 250 214 30 94 170 243 146 242 115 50 344 11 230 310 2 119 98 21 0 51 52 39 47 23 1 332 15 261 114 200 116 121 93 87 80 72 80 92
207 179 172 172 318 235 301 335 325 60 76 205 113 155 107 306 156 205 204 330 283 59 69 79 65 30 62 65 34 137 330 268 291 297 350 306 79 253 111 108 106 101 95 89 98
213 172 145 187 240 271 353 320 49 48 187 138 132 185 165 198 127 154 165 269 284 68 68 96 78 54 3 319 240 288 289 258 229 152 26 323 114 285 157 143 116 106 109 112 110
178 155 173 300 244 329 336 44 42 122 159 148 182 153 122 156 140 150 163 58 31 79 137 116 92 142 358 315 140 4 32 359 8 17 228 327 39 268 25 126 137 123 103 98 95
153 137 241 221 348 1 31 51 335 149 189 165 133 143 118 91 2 120 123 82 13 18 220 137 28 1 352 61 14 311 77 132 85 72 272 311 86 356 81 68 72 98 120 119 127
109 238 270 244 352 42 66 67 224 344 106 121 148 132 94 83 201 115 70 97 28 1 61 94 102 60 51 349 38 344 44 174 105 348 48 164 97 71 104 113 121 136 128 160 173
132 138 236 187 96 58 71 240 216 15 358 125 167 187 167 178 192 118 93 10 98 353 360 9 100 6 139 333 352 108 215 45 0 85 314 352 100 198 141 110 17 40 110 76 73
38 78 257 145 73 53 162 236 93 26 33 14 307 117 203 154 189 148 77 53 11 33 59 20 90 261 45 35 46 14 18 28 84 119 155 347 272 121 98 140 133 87 90 80 86
206 102 253 83 78 195 225 248 320 84 318 345 355 61 109 72 43 74 101 69 357 337 62 20 128 77 118 76 11 87 86 90 110 294 67 143 281 33 105 82 73 43 87 86 86
174 145 302 82 139 289 277 59 51 156 236 60 33 40 40 83 77 102 84 31 0 47 119 355 33 65 7 1 322 316 131 127 110 93 179 130 260 53 83 33 328 114 85 75 84
33 93 357 36 233 199 189 134 69 18 44 33 99 50 67 66 71 120 106 89 51 60 333 54 93 142 173 170 154 350 335 333 144 118 215 213 240 276 108 158 56 59 51 71 65
240 212 168 212 289 258 180 165 144 126 331 86 75 204 134 148 131 100 95 132 133 146 305 76 106 41 1 340 330 337 335 334 309 246 178 253 227 91 107 88 66 54 20 54 46
275 33 49 181 200 263 152 203 159 186 139 225 184 216 115 73 52 166 143 173 173 212 168 28 205 78 300 36 17 314 297 274 257 264 29 23 96 140 119 83 44 30 60 58 42
251 270 108 313 180 96 221 120 238 112 31 273 118 90 75 87 71 39 71 64 95 121 97 85 115 79 257 357 351 9 242 306 312 355 284 277 159 97 61 44 41 72 70 58 19